This is the latest recevied weather packets stored in our database for station/object VE6HFD-WX. If no packets are shown the sender has not sent any weather packets the latest 10 day(s).
| Time | Temp. | Humidity | Pressure | Rain* | Wind** | Luminosity | Snow |
|---|---|---|---|---|---|---|---|
| 1777311102 | -1.11° C | 68% | 1021.3 hPa | 0 mm | - | - | - |
| 1777310802 | -1.11° C | 68% | 1021.2 hPa | 0 mm | - | - | - |
| 1777310472 | -1.11° C | 68% | 1021.2 hPa | 0 mm | - | - | - |
| 1777310172 | -1.11° C | 67% | 1021.3 hPa | 0 mm | - | - | - |
| 1777309842 | -1.11° C | 69% | 1021.4 hPa | 0 mm | - | - | - |
| 1777309542 | -1.67° C | 67% | 1021.4 hPa | 0 mm | - | - | - |
| 1777309212 | -1.67° C | 68% | 1021.5 hPa | 0 mm | - | - | - |
| 1777308912 | -1.67° C | 68% | 1021.5 hPa | 0 mm | - | - | - |
| 1777308612 | -1.67° C | 68% | 1021.5 hPa | 0 mm | - | - | - |
| 1777308282 | -2.22° C | 68% | 1021.6 hPa | 0 mm | - | - | - |
| 1777307952 | -1.67° C | 69% | 1021.6 hPa | 0 mm | - | - | - |
| 1777307622 | -2.22° C | 68% | 1021.7 hPa | 0 mm | - | - | - |
| 1777307322 | -2.22° C | 70% | 1021.6 hPa | 0 mm | - | - | - |
| 1777306992 | -2.78° C | 70% | 1021.6 hPa | 0 mm | - | - | - |
| 1777306692 | -2.22° C | 69% | 1021.6 hPa | 0 mm | - | - | - |
| 1777306392 | -2.22° C | 69% | 1021.7 hPa | 0 mm | - | - | - |
| 1777306062 | -2.22° C | 70% | 1021.6 hPa | 0 mm | - | - | - |
| 1777305762 | -2.78° C | 70% | 1021.6 hPa | 0 mm | - | - | - |
| 1777305432 | -2.78° C | 71% | 1021.5 hPa | 0 mm | - | - | - |
| 1777305102 | -2.78° C | 72% | 1021.7 hPa | 0 mm | - | - | - |
| 1777304772 | -3.33° C | 72% | 1021.7 hPa | 0 mm | - | - | - |
| 1777304472 | -2.78° C | 72% | 1021.8 hPa | 0 mm | - | - | - |
| 1777304172 | -2.78° C | 74% | 1021.9 hPa | 0 mm | - | - | - |
| 1777303872 | -3.33° C | 73% | 1021.8 hPa | 0 mm | - | - | - |
| 1777303542 | -3.33° C | 76% | 1021.8 hPa | 0 mm | - | - | - |
* Rain latest hour (hover to see other rain measurements)
** Current wind speed in m/s (hover to see current wind gust speed)